Flight Track Log - Related Links

Times and Time Zones

All times are in EDT time to prevent confusion due to time zone crossing. See the UPS1121 flight status page for this flight to view local times or setup timezone preferences in your user account.

Time Position Orientation Groundspeed Altitude Reporting Facility
EDT Latitude Longitude Course Direction KTS MPH feet Rate Location/Type
Thu 20:33:52 42.7361 -73.8111 135° Southeast 149 171 1,500  Level Boston Center
Thu 20:34:16 42.7172 -73.8050 167° South 156 180 2,000 2,600 Climbing Boston Center
Thu 20:35:52 42.6539 -73.7047 131° Southeast 245 282 6,700 2,962 Climbing Boston Center
Thu 20:36:52 42.6067 -73.6333 132° Southeast 277 319 9,700 2,200 Climbing Boston Center
Thu 20:37:52 42.5453 -73.5306 129° Southeast 310 357 11,100 700 Climbing Boston Center
Thu 20:38:52 42.4753 -73.4225 131° Southeast 344 396 11,100  Level Boston Center
Thu 20:39:00 42.5190 -73.4796 135° Southeast  Level Estimated
Thu 20:39:07 42.4569 -73.3969 134° Southeast 348 400 11,100  Level Boston Center
Thu 20:39:52 42.4136 -73.3372 134° Southeast 344 396 11,100 -57 Level Boston Center
Thu 20:40:52 42.3414 -73.2350 134° Southeast 344 396 11,000 -50 Descending Boston Center
Thu 20:41:52 42.2753 -73.1417 134° Southeast 344 396 11,000 -350 Level Boston Center
Thu 20:42:52 42.2383 -73.0289 114° Southeast 338 389 10,300 -692 Descending Boston Center
Thu 20:43:10 42.2303 -73.0008 111° Southeast 321 369 10,100 -1,100 Descending Boston Center
Thu 20:43:52 42.2181 -72.9194 101° East 308 354 9,200 -1,279 Descending Boston Center
Thu 20:44:11 42.2078 -72.8831 111° Southeast 295 339 8,800 -1,400 Descending Boston Center
Thu 20:44:52 42.1956 -72.8156 104° East 291 335 7,800 -1,723 Descending Boston Center
Thu 20:45:52 42.1667 -72.7539 122° Southeast 276 318 5,900 -2,089 Descending Boston Center
Thu 20:47:07 42.1000 -72.6303 126° Southeast 257 296 3,100 -1,700 Descending Boston Center
Thu 20:47:52 42.0731 -72.5883 131° Southeast 241 277 2,500 -900 Descending Boston Center
Thu 20:48:07 42.0544 -72.5828 168° South 209 241 2,200 -400 Descending Boston Center
Thu 20:48:52 42.0272 -72.5797 175° South 192 221 2,100 -197 Descending Boston Center
Thu 20:49:08 42.0106 -72.5911 207° Southwest 155 178 2,000 -500 Descending Boston Center
Thu 20:49:52 41.9939 -72.6161 228° Southwest 142 163 1,600 -700 Descending Boston Center
Thu 20:50:08 41.9856 -72.6244 217° Southwest 136 157 1,300 -700 Descending Boston Center
Thu 20:50:52 41.9750 -72.6439 234° Southwest 131 151 900 -689 Descending Boston Center
Thu 20:51:09 41.9606 -72.6578 216° Southwest 126 145 600 -600 Descending Boston Center
Thu 20:51:52 41.9458 -72.6803 229° Southwest 131 151 300 -419 Descending Boston Center

Login

Don't have an account? Register now (free) for customized features, flight alerts, and more!